Presure
215 209 213 223 215 238 141 235 231 241 285 265 234 256 239 246 262 268 266 263 263 224 261 291 287 272 243 245 249 249 244 239 232 228 237 255 326 303 416 425 426 417 422 407 411 400 405 405 416 433 434 422 410 401
231 215 215 243 125 240 239 246 240 270 237 270 247 293 290 298 302 283 284 269 287 275 284 252 254 240 250 242 233 243 236 232 231 234 241 330 302 415 401 380 376 371 375 352 352 345 340 335 342 350 364 381 391 399
232 228 246 238 233 248 253 286 229 239 317 301 277 282 275 268 256 259 262 252 253 248 265 255 248 253 240 236 241 233 235 231 234 239 268 305 395 382 388 368 350 342 331 328 321 328 333 331 323 322 330 343 348 356
246 247 245 251 256 282 251 245 274 296 283 272 267 256 249 253 251 248 243 243 248 238 235 242 246 239 237 234 230 239 236 226 247 263 306 387 361 360 341 336 335 328 325 330 326 336 344 348 357 353 351 360 345 321
251 253 252 165 249 256 241 206 282 280 265 252 245 238 235 237 240 236 239 243 238 238 230 236 245 242 235 228 229 229 236 253 313 310 378 355 344 335 331 327 319 325 334 341 357 339 331 317 311 305 294 286 280 272
259 240 250 249 242 288 282 280 265 259 244 240 246 267 355 350 482 472 453 426 412 238 233 229 253 252 237 237 236 243 248 324 309 303 346 339 333 336 317 318 328 338 320 306 297 285 281 271 271 262 259 258 260 257
234 258 249 282 288 281 268 255 253 250 253 283 340 335 328 325 413 446 425 413 401 399 388 374 302 256 252 249 241 262 324 307 292 356 336 327 324 314 315 319 315 296 284 276 270 268 260 258 256 257 254 252 252 251
240 266 254 287 275 256 252 243 245 301 327 322 318 313 311 313 420 421 407 393 385 381 368 368 350 379 347 326 324 319 307 290 346 332 322 319 305 312 302 287 280 273 270 264 260 259 256 252 248 249 243 248 243 272
289 277 282 271 251 243 257 320 320 310 310 310 312 302 306 310 421 406 393 379 374 365 351 356 362 339 323 312 308 302 285 347 332 315 326 298 298 286 276 276 260 262 259 256 250 250 248 249 242 241 236 244 270 262
289 280 257 245 251 322 333 325 317 312 313 315 309 302 298 353 419 390 377 369 362 340 354 342 322 308 305 301 290 287 346 334 307 314 302 287 275 276 269 258 259 259 250 247 247 248 245 245 232 247 268 270 256 251
275 247 260 311 341 356 388 461 465 434 384 362 352 299 299 402 386 370 362 353 348 341 318 305 298 292 291 283 293 335 324 314 306 314 284 282 280 267 258 262 256 252 248 238 247 249 245 245 255 269 261 255 250 270
251 322 349 384 446 437 443 446 444 414 372 345 338 296 394 381 372 354 353 354 315 301 294 289 284 281 276 271 337 320 305 301 300 297 282 272 264 262 254 250 237 247 248 247 239 249 258 263 253 264 269 274 285 260
356 504 481 452 437 433 432 460 423 388 346 337 291 300 384 355 353 361 316 305 295 288 281 279 273 268 327 342 315 306 298 295 298 282 276 264 259 266 255 253 243 246 247 245 256 260 255 266 273 280 271 270 271 275
526 502 508 468 434 434 419 439 393 353 338 307 299 364 363 363 315 306 298 289 284 279 270 267 272 339 328 322 301 295 286 298 284 275 271 261 254 258 259 243 248 242 248 257 250 253 257 240 224 234 235 254 251 250
505 479 472 456 434 417 436 410 356 336 310 295 374 350 312 306 304 291 282 276 268 267 274 333 350 334 325 305 299 287 285 290 278 269 264 266 253 245 246 250 242 248 261 251 249 251 256 255 234 236 245 259 267 277
487 465 458 431 413 409 421 362 334 312 283 342 312 311 312 293 277 271 266 265 270 352 365 347 339 319 321 300 292 282 278 288 273 264 259 253 253 256 246 246 264 260 246 245 247 254 253 247 247 243 252 270 277 283
488 460 438 415 400 413 367 333 316 286 318 313 310 306 275 272 264 265 286 297 395 364 336 341 328 304 326 297 288 279 290 284 274 258 262 257 245 247 256 255 260 260 244 246 249 259 250 237 241 253 262 273 286 254
461 445 411 393 400 347 325 319 295 282 312 306 283 272 269 266 261 299 331 373 359 337 342 328 302 314 318 298 283 281 273 283 268 260 259 248 250 253 257 259 245 243 245 247 257 249 238 239 243 260 273 270 252 249
403 389 386 394 365 331 324 308 280 283 280 276 272 268 262 260 296 372 363 350 345 352 314 305 313 316 309 300 281 279 272 271 279 270 264 254 265 255 262 247 241 247 243 251 255 255 241 244 271 272 252 248 253 267
388 387 384 390 329 325 316 285 277 272 267 265 266 260 264 294 361 353 345 325 311 305 296 299 291 295 295 300 300 281 280 276 269 258 256 262 258 266 249 251 240 246 252 252 252 239 252 274 256 247 246 258 276 290
391 385 402 371 320 314 303 291 276 272 271 267 267 270 295 318 344 332 297 296 297 292 297 292 274 268 294 296 299 301 301 294 283 273 268 262 268 254 256 239 242 253 247 243 239 256 274 250 242 245 245 254 300 323
391 383 386 337 309 307 304 294 285 280 282 280 286 300 318 337 302 295 288 293 297 300 294 290 286 289 287 282 281 281 287 293 299 299 236 246 245 244 245 244 254 246 238 246 255 270 258 240 240 240 246 250 324 300
374 367 360 351 312 304 283 297 296 295 292 295 303 343 327 304 293 289 292 300 293 289 286 285 278 273 262 260 252 258 257 256 253 253 247 246 249 254 254 254 236 246 247 253 270 278 246 242 244 244 251 248 270 296
354 352 349 344 319 308 305 298 298 303 309 345 334 321 301 290 284 293 288 287 283 283 277 271 267 261 258 253 248 245 250 250 253 254 254 252 252 255 238 242 252 249 253 269 286 249 240 244 245 249 265 258 278 300
341 339 337 334 326 328 332 361 347 339 335 320 302 291 282 284 292 284 277 277 273 270 263 260 254 259 260 251 250 249 249 250 249 248 253 257 255 235 250 249 251 257 264 284 248 249 247 240 247 254 255 271 297 302
323 321 320 315 312 310 307 305 304 302 298 293 285 283 294 295 286 274 272 275 269 268 263 259 258 255 251 253 256 256 255 255 255 258 261 261 256 249 265 261 265 262 273 277 248 247 246 240 250 257 254 300 304 297
296 296 297 292 288 290 314 295 292 290 285 281 299 296 287 283 279 276 269 272 270 266 264 264 261 262 261 259 257 256 257 259 261 253 259 248 249 259 258 264 269 275 272 259 252 244 248 251 260 254 266 306 264 265
290 293 287 283 285 286 284 325 296 289 287 283 288 285 282 280 278 276 276 269 265 273 274 267 265 266 266 266 266 268 267 268 249 244 251 260 258 257 255 263 281 273 252 250 248 247 252 259 260 261 265 309 271 275
292 289 286 283 289 288 285 281 294 306 293 289 287 284 278 275 272 271 269 268 268 269 271 274 275 275 275 277 280 283 279 266 250 257 265 262 256 260 275 282 267 272 254 248 252 256 262 269 263 266 267 269 276 283
330 296 316 317 303 314 317 313 305 295 294 290 284 279 281 278 279 276 275 276 279 280 279 262 282 269 277 247 247 255 253 255 258 255 249 253 268 284 263 262 266 271 268 266 262 268 274 267 276 267 272 278 273 264
283 293 302 260 232 247 262 232 235 296 238 238 236 255 261 240 250 240 239 239 239 243 249 256 257 258 260 262 261 261 263 277 254 254 255 285 302 260 261 263 264 265 266 274 275 258 276 271 268 272 273 263 276 281
278 279 279 272 274 252 261 279 274 246 250 240 235 235 236 236 241 245 250 259 268 265 264 268 278 281 253 252 252 253 253 259 263 266 308 305 267 262 262 267 271 279 273 259 283 271 269 271 274 266 278 284 285 289
291 299 291 294 288 285 282 276 268 267 257 259 258 261 267 258 260 265 270 270 260 255 264 274 273 270 268 268 277 278 280 286 285 284 280 277 280 283 283 274 258 278 277 269 272 274 273 274 281 284 288 293 301 310
Wind_Speed
104 105 107 115 96 110 60 106 104 102 95 94 96 91 93 93 88 85 82 83 81 85 77 74 70 66 64 63 66 69 66 72 76 80 82 88 72 74 27 21 21 21 19 15 16 17 17 21 25 28 31 35 35 34
113 108 108 116 48 108 107 105 105 98 100 95 95 89 88 86 84 83 78 79 77 72 70 71 67 68 62 64 72 70 69 73 75 77 83 70 75 18 20 21 20 14 9 14 14 14 14 14 15 16 17 13 13 14
112 110 113 110 108 108 106 99 101 101 87 90 89 87 85 85 82 79 75 75 72 69 73 73 68 65 65 69 71 73 73 75 76 77 88 71 16 15 13 13 11 12 12 12 14 16 13 10 8 9 8 7 5 4
113 111 109 109 108 102 104 103 99 94 94 89 88 83 84 88 85 82 75 78 76 72 74 78 73 67 69 73 73 75 75 75 80 84 67 9 13 12 14 14 14 13 12 13 14 18 18 15 13 6 3 3 11 12
110 108 107 79 105 104 103 76 98 97 90 87 86 89 91 91 90 90 85 84 83 77 80 83 76 72 72 74 75 75 76 84 67 62 10 12 12 13 13 11 13 14 13 14 14 13 19 20 21 20 19 18 16 13
107 104 106 104 104 100 101 101 98 96 91 94 95 109 69 71 43 46 38 41 44 83 82 84 80 75 76 76 76 78 81 54 57 53 16 11 11 8 7 7 10 10 16 19 19 18 19 15 16 12 9 9 9 6
102 105 105 99 99 101 101 98 98 98 100 99 67 68 68 73 52 34 30 34 33 31 29 35 76 76 75 76 76 82 47 50 52 10 9 9 4 5 7 6 13 19 17 15 14 14 10 10 9 9 7 6 7 9
104 91 104 98 101 98 99 99 104 95 74 71 69 68 68 70 38 26 25 25 26 23 24 26 31 22 29 39 38 40 41 46 10 8 8 4 2 7 15 14 15 14 13 11 10 10 9 8 9 9 11 14 16 15
101 103 99 98 96 97 109 83 78 81 79 77 72 67 66 69 22 19 18 16 16 15 19 21 17 17 26 32 34 36 39 8 8 9 5 8 9 11 8 11 4 7 8 8 8 6 6 8 11 13 15 20 18 18
99 101 95 95 101 92 80 79 79 79 77 72 67 63 62 48 12 11 11 9 9 12 12 10 14 19 25 28 31 32 4 6 9 6 12 12 7 7 6 2 5 6 6 7 7 7 9 12 13 19 23 20 21 23
99 94 103 105 90 84 74 39 28 35 47 49 51 56 57 8 7 7 7 6 5 4 6 11 15 21 23 27 23 4 4 7 7 6 12 12 11 7 3 3 4 4 4 8 10 12 14 17 22 23 21 23 25 28
96 100 94 87 52 49 35 33 24 28 39 41 42 51 7 5 5 6 5 1 5 5 8 13 18 21 24 27 7 6 7 7 7 14 15 13 9 7 4 4 5 2 6 10 12 17 20 21 20 25 27 28 28 30
97 54 51 51 46 39 31 22 20 27 30 32 43 44 4 8 7 3 5 4 4 8 13 17 21 23 9 8 11 8 8 6 12 17 17 13 10 11 7 5 5 5 9 13 19 19 20 25 28 29 29 30 31 33
44 38 30 33 35 25 25 19 18 21 23 29 35 10 5 3 6 5 3 7 9 12 17 20 21 13 11 15 12 11 9 12 18 18 18 14 9 8 5 9 5 7 13 18 17 21 23 21 23 25 28 33 35 38
26 21 16 17 17 18 17 16 16 14 18 26 8 5 7 6 4 5 8 12 16 20 23 11 15 17 14 17 15 13 11 16 20 18 14 13 9 8 9 7 10 13 17 15 19 23 25 25 27 30 34 36 37 39
15 12 12 14 15 16 17 18 11 9 20 4 5 7 5 4 9 12 16 19 22 11 13 13 18 17 16 19 16 15 13 18 20 16 15 13 11 9 9 12 14 16 13 16 20 24 25 27 29 32 35 37 40 40
5 12 18 18 14 14 21 13 9 12 4 6 8 6 10 13 17 19 21 22 11 9 12 16 18 15 13 20 18 16 14 17 20 15 13 11 12 12 13 12 14 14 15 19 23 27 26 28 32 36 40 43 45 39
17 22 19 14 11 20 18 14 9 10 7 10 7 14 15 17 22 20 14 6 9 11 14 18 11 10 11 19 18 15 13 15 17 17 14 13 14 13 13 13 12 14 18 22 27 27 28 32 36 39 42 42 42 45
18 14 11 10 18 24 20 15 10 10 9 8 13 16 18 22 21 1 6 8 10 13 13 10 10 8 10 14 15 14 15 13 15 17 17 15 16 12 13 12 14 18 21 26 28 30 32 35 41 41 40 43 47 52
6 9 8 13 23 18 13 13 14 13 14 15 17 18 21 20 1 5 9 9 7 8 8 10 8 10 8 7 11 15 15 17 16 14 12 15 13 13 13 16 18 22 25 27 30 32 35 42 36 39 43 50 56 57
4 7 11 15 13 10 12 13 14 14 15 17 19 20 18 11 3 7 1 1 4 5 8 8 7 6 4 3 3 6 9 13 15 16 16 13 13 13 15 18 21 25 26 29 32 36 44 35 38 42 46 51 58 56
6 6 11 14 9 9 11 12 14 15 16 17 18 16 9 6 2 2 4 4 6 8 9 8 8 7 7 7 6 4 3 2 0 5 10 10 13 16 19 22 25 26 29 32 36 42 36 37 41 44 48 51 50 52
12 11 10 8 10 9 10 11 12 13 14 15 14 6 6 2 2 2 2 7 8 8 9 9 10 10 7 5 4 2 3 4 6 8 11 15 18 21 24 26 27 30 33 36 42 43 36 40 43 47 51 52 57 51
10 8 6 4 5 8 9 11 11 13 12 5 7 5 3 3 1 3 6 7 7 8 9 9 7 6 7 8 8 10 10 12 13 15 18 20 23 25 25 28 31 33 36 43 44 37 39 43 46 50 54 55 58 52
8 7 5 3 1 2 3 3 1 2 4 3 5 4 2 2 4 8 8 8 9 9 9 8 8 8 9 12 13 14 16 17 19 20 24 26 26 27 30 33 35 39 43 43 37 40 42 44 49 53 55 59 54 51
17 16 16 13 13 11 9 8 6 5 4 3 2 2 5 7 9 10 10 9 10 10 11 11 12 14 15 17 18 20 21 23 25 27 29 30 30 31 37 39 41 42 43 43 41 43 46 47 52 53 56 55 52 50
11 11 10 10 11 10 9 7 5 4 3 2 4 6 6 7 8 10 10 11 11 13 14 16 17 19 20 22 23 24 26 27 29 28 30 30 33 36 38 41 43 43 44 43 44 46 49 52 54 54 56 55 55 56
11 8 9 10 8 7 7 5 4 4 5 6 5 6 6 7 8 9 11 13 15 16 18 20 22 23 25 26 28 30 32 34 29 30 33 37 38 39 41 43 43 44 45 46 48 50 53 55 55 56 58 55 57 58
14 14 13 14 11 10 9 8 6 2 5 7 8 8 8 10 12 14 15 18 20 22 23 26 28 29 31 32 34 35 35 34 33 36 39 40 42 44 45 45 46 47 49 50 53 55 56 58 58 58 59 59 60 61
5 7 7 5 5 4 2 4 6 9 10 11 12 13 15 16 18 20 22 24 26 27 28 25 31 29 32 29 30 33 34 37 39 40 42 45 46 46 47 48 50 51 52 53 55 57 57 58 58 59 61 61 61 61
19 14 12 14 23 21 14 21 18 11 16 17 18 18 18 19 20 20 22 23 25 26 28 29 31 33 35 36 38 39 41 44 43 45 47 49 48 49 51 52 53 54 56 56 56 56 58 59 60 62 62 61 66 68
20 21 21 21 22 21 21 24 24 21 21 24 26 27 27 27 27 28 29 31 33 34 35 37 40 41 39 41 43 45 46 47 48 49 46 47 50 52 53 55 56 56 56 57 58 59 60 62 63 64 68 69 70 71
23 23 24 25 25 26 27 27 26 27 27 27 28 29 31 31 33 34 36 37 38 39 40 41 42 43 43 45 46 47 48 48 48 48 49 50 51 52 53 54 55 57 58 60 61 62 64 66 69 70 71 73 75 77
Wind_Direction
306 303 306 310 309 307 316 305 303 305 304 304 302 303 301 301 301 301 302 300 301 294 300 299 299 301 298 300 302 301 306 303 301 303 305 309 307 308 308 305 299 313 318 317 313 311 300 292 289 287 278 272 274 272
309 303 305 309 304 306 304 306 305 304 302 303 302 301 300 300 300 300 300 300 300 300 299 295 299 294 300 297 295 301 298 298 301 304 308 310 311 305 303 305 313 311 320 310 312 319 324 330 333 331 322 311 291 278
308 306 308 308 306 306 305 305 302 303 303 303 305 303 302 303 300 301 301 296 297 295 298 294 295 299 295 295 297 297 298 301 304 307 314 312 328 317 321 325 328 335 326 326 311 322 328 326 298 296 308 323 317 322
308 307 307 307 306 307 304 304 305 304 305 306 305 302 298 299 297 295 293 291 292 289 291 291 292 292 293 293 295 298 299 304 309 312 313 320 302 326 318 328 339 342 341 343 331 331 327 328 329 332 351 35 103 103
306 307 307 303 305 306 305 308 306 305 304 301 297 294 292 291 289 288 287 284 285 286 287 288 289 290 291 293 295 297 301 307 308 311 315 298 304 312 335 346 351 351 347 359 341 66 80 84 83 83 83 79 76 71
308 307 306 306 305 307 306 306 307 305 297 297 297 305 304 303 288 285 282 277 276 284 284 286 286 288 290 292 294 298 303 304 308 310 295 299 300 330 328 359 22 43 89 89 88 84 81 74 70 65 49 43 40 17
306 307 306 307 306 306 307 306 304 300 301 304 306 307 307 306 301 289 281 273 275 272 270 270 276 284 287 290 293 297 299 303 307 267 273 281 297 347 20 38 98 99 91 88 75 73 63 59 50 45 28 7 340 326
306 307 308 306 307 307 306 301 301 303 303 305 306 308 309 309 301 287 278 271 269 267 266 268 275 282 280 285 288 294 301 303 262 262 274 217 152 91 108 109 107 99 92 84 68 62 47 31 10 354 341 336 331 317
308 308 306 306 306 302 305 301 299 299 301 302 305 308 309 310 298 290 281 272 273 267 265 274 276 275 280 284 292 300 302 229 238 255 231 188 144 144 139 114 71 86 75 63 39 30 3 352 337 329 326 324 325 315
307 307 307 302 303 302 300 299 297 298 299 301 304 306 308 310 299 290 284 277 268 266 275 266 268 277 283 291 299 301 229 229 249 243 178 178 192 167 141 63 78 66 28 22 356 333 329 328 317 323 328 325 318 314
308 305 307 304 303 302 300 291 279 283 290 295 299 304 307 307 305 296 279 260 267 255 247 267 277 282 290 297 298 236 256 210 225 203 193 184 184 177 127 78 64 29 338 324 317 322 324 321 321 327 323 318 316 319
305 306 305 300 293 295 294 287 270 275 285 295 299 304 297 301 276 265 281 274 193 243 267 277 281 290 298 301 181 216 220 225 205 180 186 184 191 195 175 122 247 337 315 314 321 321 323 327 322 322 323 324 324 321
307 288 281 279 281 283 284 270 258 268 287 294 300 306 274 296 288 302 198 229 258 273 279 288 292 297 231 189 200 198 207 199 174 184 188 195 204 208 209 196 235 284 318 320 322 327 328 332 331 329 328 326 323 322
298 289 274 265 269 270 271 247 244 267 284 296 303 286 288 291 201 225 246 264 281 292 286 293 296 195 203 181 208 198 208 185 185 192 195 207 216 214 235 248 292 302 317 318 324 330 332 317 318 321 325 329 327 325
277 275 262 242 244 246 248 210 235 262 287 297 262 254 203 245 238 262 279 290 294 296 299 254 191 189 190 193 190 197 199 194 192 196 202 210 214 225 245 272 295 311 312 319 326 330 329 330 319 324 328 326 326 329
247 233 196 203 207 222 201 200 220 255 289 200 226 233 241 241 273 285 294 298 300 255 192 194 184 188 183 191 191 196 196 200 201 202 208 216 226 240 262 281 294 305 314 320 326 326 327 325 324 325 327 331 333 332
191 179 173 176 190 191 178 190 199 265 187 200 225 229 263 279 296 299 307 307 201 187 186 178 174 195 190 190 191 193 198 203 204 209 211 213 240 257 274 286 303 308 313 319 322 326 325 318 323 327 331 333 333 327
123 139 150 162 170 171 180 180 211 255 173 216 257 274 287 299 299 313 309 185 174 189 171 170 187 174 184 187 191 190 201 206 207 206 213 235 250 262 278 293 298 310 316 319 325 324 319 322 325 329 333 330 328 329
109 124 141 154 166 178 178 180 227 241 261 268 271 284 296 296 317 161 155 176 179 171 156 157 143 146 173 193 194 198 207 208 213 219 219 240 245 270 282 293 311 315 317 321 325 324 321 323 332 333 329 328 329 328
102 110 125 147 185 183 167 199 233 257 270 275 280 291 296 316 175 154 164 149 154 152 165 145 150 127 144 177 209 217 219 216 223 239 253 251 263 277 296 309 311 315 318 323 323 318 324 331 330 328 329 332 330 328
49 92 115 162 191 178 186 209 246 259 267 278 287 295 313 315 174 159 114 200 187 194 164 165 205 225 148 174 210 233 241 245 243 242 248 265 269 301 304 307 311 317 317 316 316 323 328 325 326 329 331 331 327 324
53 80 107 180 187 202 214 229 247 262 274 283 295 304 305 173 115 224 292 225 185 161 161 164 156 142 132 122 116 110 100 88 223 236 274 287 296 299 303 305 312 313 311 316 321 324 322 324 326 328 329 329 327 331
63 84 107 148 205 218 250 251 266 276 285 292 295 198 188 166 212 268 231 171 172 168 169 164 161 167 185 191 229 260 276 286 290 294 290 294 298 304 311 313 307 313 314 317 320 319 322 324 324 326 326 328 331 331
50 66 93 141 220 244 258 271 280 284 285 208 198 194 127 165 219 197 175 174 174 179 184 194 202 226 240 251 268 284 293 298 300 298 298 303 307 309 303 307 313 313 315 317 316 319 321 323 324 324 328 327 330 328
29 53 67 67 6 298 268 154 134 152 175 146 115 125 152 207 189 176 186 192 199 209 220 231 254 266 275 270 279 286 290 292 294 298 304 306 308 302 310 310 311 314 314 313 316 318 319 322 323 323 324 327 327 327
54 57 60 59 53 49 45 42 43 54 68 79 108 191 201 186 184 202 220 220 231 241 248 260 267 274 279 281 283 286 289 294 298 301 302 304 308 309 312 311 312 310 310 309 315 316 318 321 321 321 324 326 326 326
7 16 27 22 14 10 11 352 350 353 349 301 211 191 204 209 221 233 252 257 260 265 269 271 276 278 282 285 289 294 297 299 300 300 305 304 306 309 309 309 308 307 307 310 312 316 316 317 318 320 323 324 325 325
328 332 335 339 338 340 345 359 309 288 279 275 251 245 249 259 265 268 269 276 283 278 277 281 285 286 287 290 294 297 299 301 297 297 302 306 306 306 305 304 307 306 311 312 312 314 315 315 317 320 322 320 322 322
305 308 310 314 308 308 313 316 318 256 257 264 267 275 281 277 279 281 282 284 286 290 293 293 293 294 296 297 297 297 299 304 299 302 304 303 304 303 303 305 305 304 308 310 311 312 313 315 317 318 319 320 321 321
350 320 296 309 308 317 315 248 252 269 264 269 277 286 280 286 287 293 294 296 295 296 297 296 298 297 298 294 296 299 299 300 302 304 307 305 300 302 305 307 306 306 308 309 310 311 312 314 315 316 318 319 318 317
312 305 292 277 283 285 278 290 290 280 287 286 287 286 290 289 289 288 287 289 290 292 295 298 298 298 299 299 300 300 299 298 302 302 303 301 301 304 305 305 307 307 307 308 310 311 313 314 314 315 315 314 316 317
298 303 303 305 303 293 308 305 308 286 289 279 279 284 285 287 290 293 296 298 298 297 296 294 294 294 299 301 300 300 301 300 300 301 300 300 302 304 305 306 306 306 308 310 310 310 311 312 312 312 313 314 315 316
295 296 294 294 296 299 299 299 295 295 289 290 289 290 292 291 292 292 293 292 294 296 295 294 295 298 299 299 299 299 299 300 300 300 300 301 302 302 303 305 307 308 309 308 309 310 310 310 310 311 312 313 314 315